Regional Weather Roundup
Issued by NWS Green Bay, WI

Home | Current Version | Previous Version | Graphics & Text | Print | Product List | Glossary Off
Versions: 1 2 3 4 5 6 7 8 9 10 11 12 13 14 15 16 17 18 19 20 21 22 23 24 25 26 27 28 29 30 31 32 33 34 35 36 37 38 39 40 41 42 43 44 45 46 47 48 49 50

000
ASUS43 KGRB 210210
RWRGRB

NORTH-CENTRAL AND NORTHEAST WISCONSIN REGIONAL WEATHER ROUNDUP
NATIONAL WEATHER SERVICE GREEN BAY WI
900 PM CDT SAT SEP 20 2014

WIZ005-009-010>012-018-019-210300-
NORTH CENTRAL WISCONSIN

CITY           SKY/WX    TMP DP  RH WIND       PRES   REMARKS
IRONWOOD       CLOUDY    54  52  94 CALM      29.68R
MANITOWISH WTR CLOUDY    52  52 100 CALM      29.71S
ARBOR VITAE    CLOUDY    57  53  88 CALM      29.72S
EAGLE RIVER    CLOUDY    56  51  84 CALM      29.71S
LAND O LAKES   MOCLDY    51  50  98 CALM      29.72S
RHINELANDER    CLOUDY    60  52  74 W3        29.73R
PHILLIPS       CLOUDY    57  53  84 W13G26    29.75R
ANTIGO         CLOUDY    62  54  75 W8        29.72R
TOMAHAWK       CLOUDY    57  52  82 CALM      29.72S
MERRILL        CLOUDY    62  55  76 NW3       29.72R
$$

WIZ013-073-210300-
NORTHEAST WISCONSIN

CITY           SKY/WX    TMP DP  RH WIND       PRES   REMARKS
IRON MOUNTAIN  MOCLDY    60  53  77 N5        29.68R
MARINETTE      PTCLDY    61  57  88 CALM      29.66R
OCONTO         CLOUDY    64  63  97 CALM      29.66S
$$

WIZ017-030-035>037-045-210300-
CENTRAL WISCONSIN

CITY           SKY/WX    TMP DP  RH WIND       PRES   REMARKS
MEDFORD        TSTM      57  53  87 NW16G44   29.75R
WAUSAU         CLOUDY    64  56  75 NW6       29.71R
MOSINEE        PTCLDY    63  57  82 W5        29.73R
MARSHFIELD     RAIN      62  56  80 W37G48    29.75R SQUALL
WISC RAPIDS    CLOUDY    62  58  86 CALM      29.73R
STEVENS POINT  CLOUDY    64  56  76 CALM      29.72S
WAUPACA        MOCLDY    65  59  81 CALM      29.71S
SHAWANO        MOCLDY    67  58  72 SW6       29.69S
CLINTONVILLE   MOCLDY    64  55  72 W3        29.70R
$$

WIZ038-039-048-051-210300-
FOX VALLEY

CITY           SKY/WX    TMP DP  RH WIND       PRES   REMARKS
NWS GREEN BAY  PTCLDY    66  58  75 W7        29.69S
APPLETON       MOCLDY    64  57  77 W8        29.71S
OSHKOSH        CLEAR     66  60  81 SW5       29.71S
FOND DU LAC    CLEAR     65  61  87 SW6       29.72S
$$

WIZ022-050-052-210300-
EAST CENTRAL WISCONSIN

CITY           SKY/WX    TMP DP  RH WIND       PRES   REMARKS
STURGEON BAY   MOCLDY    63  61  94 S6        29.68R
MANITOWOC      CLEAR     67  63  87 W7        29.69F
SHEBOYGAN      CLEAR     64  60  87 SW7       29.71F
$$

LMZ563-521-522-541>543-210300-
LAKESHORE

STATION/POSITION TIME  TEMP    WIND        PRES    VSBY  WAVE
                       AIR SEA DIR/SP/G                  HT/PER
                 (UTC) (F)     (DEG/KT/KT) (MB)    (MI)  (FT/S)
SHEBOYGAN LKSHOR 0200   68 53  230/ 10/ 11 1005.9F
KEWAUNEE LKSHORE 0200   67     250/  5/  8 1004.0F
NORTHPORT PIER   0200   62     330/  4/  6 1004.7R
N MID LAKE BUOY  0200   61 58   40/ 10/ 12 1005.2R         4/ 7
S GREEN BAY BUOY 0200   65     VRB  6/  8  1005.9R
SISTER BAY LKSHO 0100             CALM       N/A
CHAMBERS ISLAND  0200   58     100/  1/  2 1004.7S
MENOMINEE LKSHOR 0200   64      CALM  /  1 1005.0R
$$



USA.gov is the U.S. government's official web portal to all federal, state and local government web resources and services.